Location: Bord�res
(43.2000°N, 0.2167°W)
Time: 21:59:14
(UTC+00:00)

SL-08 R/B - Pass Details

Date: 03 March 2021
Orbit: 949 x 1019 km, 82.9° (Epoch: 18 April)

Event Time Altitude Azimuth Distance (km) Brightness Sun altitude
Rises 20:05:23 0° 178° (S) 3,719 7.4 -24.8°
Enters shadow 20:06:05 - 177° (S) 3,457 7.2 -24.9°
Exits shadow 20:11:52 40° 164° (SSE) 1,449 5.1 -25.9°
Maximum altitude 20:14:16 70° 94° (E) 1,080 4.4 -26.4°
Drops below altitude 10° 20:20:43 10° 12° (NNE) 2,816 7.0 -27.5°
Sets 20:23:16 0° 11° (N) 3,771 7.7 -27.9°
